Other Public Products
Issued by NWS Charleston, SC

Home | Current Version | Previous Version | Text Only | Print | Product List | Glossary On
Versions: 1 2 3 4 5 6 7 8 9 10 11 12 13 14 15 16 17 18 19 20 21 22 23 24 25 26 27 28 29 30 31 32 33 34 35 36 37 38 39 40 41 42 43 44 45 46 47 48 49 50
000
FPUS82 KCHS 201028
OPUCHS

TEST...KCHS/KSAV Gateway Observations...TEST
National Weather Service Charleston SC
500 AM EST TUE FEB 20 2018

NOTE: "fair" indicates few or no clouds below 12,000 feet with no
significant weather and/or obstructions to visibility.

SCZ050-WAZ558-NCZ071-TXZ119-213-PAZ071-DCZ001-FLZ074-172-MI076-
NYZ176-178-MAZ016-IL014-TNZ027-NJZ106-GAZ044-MD014-201100-

...Gateway Observations for Charleston International...

CITY           SKY/WX    TMP DP  RH WIND       PRES   REMARKS
Chas Airport   FOG       60  59  96 CALM      30.39R VSB 1/4
Seattle        MOCLDY    28  18  66 SE6       30.19F WCI  22
Charlotte      FOG       54  54 100 CALM      30.40S VSB 1/2
Dallas DFW     TSTM      71  67  87 S20G28    29.85R
Dallas Love    TSTM      70  66  87 S18       29.87R
Philladelphia  FOG       48  48 100 SW3       30.32S VSB 1/4
Wash National  CLOUDY    53  52  96 S12       30.33S
Baltimore      CLOUDY    51  51 100 SW10      30.32R
Miami          MOCLDY    77  70  79 E16G25    30.24R
Detroit        LGT RAIN  53  52  96 S8        29.97S VSB 1
Newark         FOG       48  48 100 SW7       30.30R VSB 1/2
Laguardia      CLOUDY    51  48  89 W9        30.29R
J F K          FOG       45  45 100 SW7       30.31R VSB 1/4
Boston Logan   CLOUDY    52  50  93 SW16      30.23S
Ft. Lauderdale MOCLDY    76  71  85 E17       30.24R
Chicago O`Hare RAIN      60  58  92 SW17      29.81S FOG
Chicago Midway LGT RAIN  61  59  93 SW16G26   29.83R
Houston Bush   MOCLDY    72  67  84 S18G26    29.97R
Houston Hobby  MOCLDY    71  69  93 SE14G24   29.96S
Nashville      FAIR      68  57  68 S15G28    30.18R
Atlanta        FOG       59  59 100 E6        30.34R VSB 1/2

$$

GAZ044-118-TXZ119-213-NCZ071-DCZ001-MDZ014-506-PAZ021-071-NJZ106-
NYZ176-178-MAZ106-OHZ011-021-055-MIZ076-KYZ091-ILZ014-INZ047-
MNZ060-ONZ431-201100-

...Gateway Observations for Savannah International...

CITY           SKY/WX    TMP DP  RH WIND       PRES   REMARKS
Savannah Arpt  FOG       60  60 100 N3        30.37R VSB 1/2
Atlanta        FOG       59  59 100 E6        30.34R VSB 1/2
Charlotte      FOG       54  54 100 CALM      30.40S VSB 1/2
Dallas DFW     TSTM      71  67  87 S20G28    29.85R
Houston Bush   MOCLDY    72  67  84 S18G26    29.97R
Wash National  CLOUDY    53  52  96 S12       30.33S
Wash Dulles    CLOUDY    51  51 100 S13       30.32R
Baltimore      CLOUDY    51  51 100 SW10      30.32R
Philadelphia   FOG       48  48 100 SW3       30.32S VSB 1/4
Newark         FOG       48  48 100 SW7       30.30R VSB 1/2
Laguardia      CLOUDY    51  48  89 W9        30.29R
J F K          FOG       45  45 100 SW7       30.31R VSB 1/4
Boston         CLOUDY    52  50  93 SW16      30.23S
Pittsburg      MOCLDY    62  52  69 S9        30.16R
Akron          CLOUDY    61  52  72 SW15      30.12R
Cleveland      CLOUDY    64  54  69 S17G24    30.07S
Cincinnati     MOCLDY    61  57  87 S12       30.10S
Columbus       CLOUDY    62  56  82 SW13      30.13S
Detroit        LGT RAIN  53  52  96 S8        29.97S VSB 1
Chicago O`Hare RAIN      60  58  92 SW17      29.81S FOG
Minneapolis    LGTSLEET  20  19  96 NW8       29.85R FOG     WCI  10
Indianapolis   MOCLDY    65  57  75 S14       29.99S
Toronto Canada FOG       37  36  93 CALM      30.00S VSB 1/8

$$




USA.gov is the U.S. government's official web portal to all federal, state and local government web resources and services.